Location: Newark
(29.9790°N, 31.1340°E)
Time: 01:03:53
(UTC+00:00)

Vanguard 3 - Pass Details

Date: 17 January 2021
Orbit: 508 x 3262 km, 33.4° (Epoch: 06 March)

Event Time Altitude Azimuth Distance (km) Brightness Sun altitude
Exits shadow 02:00:21 51° 180° (S) 1,789 8.7 -36.7°
Maximum altitude 02:01:55 56° 147° (SSE) 1,823 8.9 -36.4°
Drops below altitude 10° 02:14:53 10° 74° (ENE) 5,093 11.9 -33.6°
Sets 02:19:54 0° 71° (ENE) 6,497 12.6 -32.5°
